SCP
0 0 0 0 0 0 0 0 0 0 0 0 0 0 0 0 0 0 0 0 0 0 0 0 0 0 -0 -0 -0 -0 -0 -0 -0 0 0 0 0 0
0 0 0 0 0 0 0 0 0 0 0 0 0 0 0 0 0 0 0 0 0 0 0 0 0 -0 -0 -0 -0 -0 -0 -0 0 0 0 0 0 0
0 0 0 0 0 0 0 0 0 0 0 0 0 0 0 0 0 0 0 0 0 0 0 0 0 -0 -0 -0 -0 -0 -0 0 0 0 0 0 0 0
0 -0 0 0 0 0 0 -0 0 0 0 0 0 0 0 0 0 0 0 0 0 0 0 0 0 0 0 0 -0 -0 -0 0 0 0 0 0 0 0
-0 -0 0 0 0 0 0 0 0 0 0 0 0 0 0 0 0 0 0 0 0 0 0 0 0 0 -0 -0 -0 -0 -0 0 0 0 0 0 0 0
-0 -0 0 0 -0 -0 0 0 0 0 0 0 0 0 0 0 0 0 0 0 0 0 0 -0 -0 -0 -0 -0 -0 -0 -0 0 0 0 0 0 0 0
-0 -0 -0 0 -0 -0 0 0 0 0 0 0 0 0 0 0 0 0 0 0 0 0 0 0 -0 -0 -0 -0 -0 -0 0 0 0 0 0 0 0 0
0 0 0 0 0 0 0 0 0 0 0 0 0 0 0 0 0 0 0 0 0 0 0 -0 -0 -0 0 0 0 0 0 0 0 0 0 0 0 0
0 -0 0 0 0 0 -0 -0 -0 0 0 -0 0 0 0 0 0 0 -0 -0 0 0 0 -0 0 0 0 0 0 0 0 0 0 0 0 0 0 0
0 0 0 0 0 -0 0 0 0 0 0 0 0 0 0 0 0 0 0 0 0 -0 0 0 0 0 0 0 0 0 0 0 0 0 0 0 0 0
0 0 -0 -0 -0 -0 0 0 0 0 0 0 0 0 -0 0 0 0 0 -0 -0 0 0 0 0 0 0 0 0 0 0 0 0 0 0 0 0 -0
0 0 -0 -0 0 0 -0 -0 -0 -0 -0 -0 -0 0 0 -0 -0 -0 -0 -0 0 0 0 0 0 0 0 0 0 0 0 0 0 0 0 0 0 0
0 0 -0 0 0 0 0 0 -0 -0 0 0 -0 -0 -0 -0 -0 -0 -0 -0 0 0 0 0 0 0 0 0 0 0 0 0 0 0 0 0 0 0
-0 0 -0 0 0 0 0 -0 -0 -0 -0 -0 -0 0 0 0 0 0 0 0 0 0 0 0 0 0 0 0 0 0 0 0 0 0 0 0 0 0
0 -0 -0 0 -0 0 -0 -0 -0 -0 0 0 0 0 0 -0 -0 0 0 0 0 0 0 0 0 0 0 0 0 0 0 0 0 0 0 0 0 0
-0 -0 -0 0 0 0 -0 -0 -0 0 0 0 0 -0 -0 0 0 0 0 0 0 0 0 0 0 0 0 0 0 0 0 0 0 0 0 0 0 0
-0 -0 -0 -0 -0 -0 0 -0 0 0 0 0 0 -0 -0 0 0 0 0 0 0 0 0 0 0 0 0 0 0 0 0 0 0 0 0 0 0 0
-0 0 0 0 0 0 0 0 0 0 0 0 -0 0 0 0 0 0 0 0 0 0 0 0 0 0 0 0 0 0 0 0 0 0 0 0 0 0
0 0 0 0 0 0 0 0 0 0 0 -0 0 0 0 0 0 0 0 0 0 0 0 0 0 0 0 0 0 0 0 0 0 0 0 0 0 0
0 0 0 0 0 0 0 0 0 -0 -0 0 0 0 0 0 0 0 0 0 0 0 0 0 0 0 0 0 0 0 0 0 0 0 0 0 0 0
0 0 0 0 -0 -0 0 0 -0 0 0 0 0 0 0 0 0 0 0 0 0 0 0 0 0 0 0 0 0 0 0 0 0 0 0 0 0 0
-0 -0 0 0 -0 0 0 0 0 0 0 0 0 0 0 0 0 0 0 0 0 0 0 0 0 0 0 0 0 0 0 0 0 0 0 0 0 0
0 0 0 0 0 0 0 0 0 0 0 0 0 0 0 0 0 0 0 0 0 0 0 0 0 0 0 0 0 0 0 0 0 0 0 0 0 0
Wind_Speed_500mb
18 16 13 8 11 9 25 35 29 31 26 32 29 16 49 67 89 91 91 83 65 58 45 39 37 35 34 29 23 19 16 14 11 6 5 8 12 15
19 15 7 10 16 22 20 18 20 23 19 34 37 29 84 95 97 96 85 67 60 50 42 37 36 37 32 28 23 19 15 11 7 8 9 12 16 20
15 12 15 19 21 21 20 8 11 27 36 33 37 73 98 98 92 81 73 62 54 46 37 38 37 34 29 25 22 17 13 9 10 10 14 19 23 28
17 17 16 21 27 17 12 10 28 30 48 72 84 97 93 93 88 75 62 56 53 44 40 37 34 30 27 23 18 13 11 12 14 18 22 25 25 26
21 23 25 27 29 17 18 26 33 32 64 95 93 94 88 82 75 65 54 48 44 41 38 34 31 28 22 16 13 13 15 18 19 18 17 20 23 22
24 26 24 19 18 15 20 25 33 35 70 77 83 86 90 74 63 59 51 47 44 36 33 31 27 22 19 17 13 14 14 13 13 14 17 19 20 20
19 20 19 21 19 13 18 23 32 59 86 86 86 89 82 70 60 51 48 54 40 32 31 27 23 21 19 15 15 11 9 9 11 15 16 14 14 15
25 25 24 24 17 20 21 27 29 64 82 83 83 87 76 64 51 54 54 51 38 30 32 29 23 25 21 20 15 9 5 9 12 8 6 8 12 20
27 33 32 24 26 28 24 24 43 54 70 79 85 79 72 55 47 44 49 35 30 36 32 29 23 22 22 19 15 8 7 8 3 3 7 13 19 25
26 29 28 31 30 28 33 35 40 51 59 68 77 68 56 51 41 36 47 35 30 35 26 22 24 20 21 20 13 8 7 5 3 5 12 17 23 27
25 36 36 48 39 30 47 45 39 40 46 48 55 51 55 42 39 39 40 30 32 26 24 18 21 21 20 17 15 11 10 7 3 9 14 19 25 32
37 40 45 49 46 35 45 46 47 51 58 53 51 49 42 42 31 31 32 25 22 19 26 25 31 25 15 15 18 15 14 4 8 14 18 22 27 29
49 48 52 40 37 34 37 42 51 55 52 49 49 47 44 41 38 31 31 20 21 14 20 23 26 26 12 13 19 15 13 11 9 18 22 23 28 29
52 38 43 37 33 36 34 39 44 50 42 40 41 42 39 34 34 39 38 36 36 28 16 33 18 22 18 17 20 17 12 10 5 10 14 28 35 36
35 35 39 40 42 39 38 40 46 36 36 36 35 33 34 37 32 32 33 32 29 26 22 27 20 23 22 19 20 18 12 11 8 14 20 21 21 16
38 38 35 36 38 36 39 40 32 36 36 36 34 34 36 33 33 32 32 31 27 25 27 26 26 26 23 24 21 17 12 12 13 18 21 14 15 17
42 36 33 32 33 37 38 37 29 33 30 27 29 33 34 34 30 32 27 23 14 18 21 21 26 28 25 23 16 13 9 8 13 16 18 12 14 18
36 29 29 31 33 34 34 33 31 34 30 29 29 29 30 29 28 28 27 25 24 24 23 22 27 27 26 22 21 9 10 8 11 16 17 16 15 19
32 29 30 32 35 36 38 39 38 35 34 33 32 32 32 30 36 28 29 28 27 26 25 24 25 21 21 19 24 21 13 11 14 14 21 26 23 24
34 31 33 34 36 38 38 39 38 36 36 36 36 35 35 33 32 31 31 31 30 28 27 24 27 30 31 25 12 20 18 18 18 20 24 26 28 33
42 38 37 38 39 40 40 40 40 41 40 40 40 38 37 36 36 33 34 37 40 34 36 40 39 33 31 24 23 28 22 22 23 24 24 25 26 22
43 45 44 42 41 41 42 42 44 47 45 40 42 42 41 40 41 40 40 42 53 45 42 47 43 50 47 38 35 28 23 30 27 25 24 24 26 21
50 49 48 48 47 47 47 48 46 45 48 53 49 50 51 50 48 44 44 57 57 59 63 56 52 51 41 36 39 28 27 25 27 24 31 28 28 32
Wind_Direction_500mb
163 173 176 179 169 169 165 159 157 159 157 169 166 208 198 186 158 149 152 149 150 159 156 158 163 165 166 157 153 158 159 169 183 209 272 290 294 295
174 183 180 155 156 144 156 199 197 184 172 191 206 215 172 157 154 153 151 153 158 154 155 164 163 166 156 161 166 169 173 188 208 249 273 289 302 304
160 172 165 158 158 162 157 178 197 180 163 150 158 169 147 148 148 149 150 157 154 157 160 163 161 154 164 172 172 183 196 223 248 274 285 291 292 291
171 159 169 170 164 168 175 147 139 142 145 134 132 144 149 153 150 154 159 155 158 162 150 157 158 161 171 181 182 202 231 251 264 275 284 287 293 299
164 151 155 153 156 162 148 142 152 133 145 135 140 149 151 154 155 153 146 151 142 143 156 159 161 170 178 188 202 226 246 263 271 280 289 295 298 307
158 158 150 152 147 136 145 143 164 154 153 147 145 148 153 152 148 149 148 143 141 151 148 163 166 175 184 205 220 238 252 258 273 287 304 311 322 327
162 159 160 168 159 141 144 150 150 158 151 153 149 152 154 153 149 154 145 144 149 146 152 158 173 184 196 197 207 213 232 274 298 318 321 326 328 330
155 169 159 150 146 148 141 148 165 165 163 160 156 158 159 164 167 154 147 149 138 154 154 145 158 165 181 191 192 216 254 302 314 326 323 324 339 353
150 145 146 146 147 144 142 146 173 171 169 164 162 161 161 156 148 151 155 150 158 158 158 153 162 180 192 198 201 213 279 305 302 314 336 354 355 352
146 137 134 134 135 145 149 146 157 162 172 164 166 162 158 166 168 162 154 167 170 157 165 156 168 184 211 205 209 235 280 236 224 342 359 355 348 338
131 147 132 128 115 116 138 143 140 151 156 163 171 166 172 169 168 173 173 157 159 175 179 182 183 192 200 217 226 236 244 227 290 341 348 342 338 338
135 142 138 134 126 121 132 135 136 139 142 145 154 169 176 179 187 181 165 164 173 182 203 188 197 182 187 214 237 234 229 260 313 328 329 334 341 347
139 135 142 145 133 131 145 149 147 150 150 152 157 165 169 171 172 173 176 194 205 206 233 186 195 200 205 206 206 208 202 272 311 319 323 332 336 341
138 134 137 141 140 139 149 152 154 152 149 149 155 163 166 170 183 191 194 199 194 202 222 192 206 208 207 216 202 210 219 251 267 298 319 331 336 339
152 155 144 145 148 147 146 148 151 147 154 157 163 169 179 190 192 197 203 209 216 225 219 218 210 205 206 212 206 196 198 228 275 310 325 327 329 341
158 154 153 154 156 161 158 157 165 172 170 172 176 186 190 188 193 200 204 206 214 218 217 223 226 198 187 189 191 187 189 206 282 306 326 326 319 319
165 164 166 168 170 173 176 174 171 173 171 181 182 192 192 191 191 194 190 196 194 211 221 219 204 190 186 183 183 189 208 259 289 306 330 318 300 301
173 177 182 184 187 189 191 193 194 196 194 192 193 192 191 190 195 202 203 201 204 200 194 209 204 205 207 204 202 203 246 257 288 303 321 313 288 297
194 202 201 199 197 200 202 204 207 209 204 204 203 201 201 201 209 205 207 208 208 205 203 200 199 196 209 217 248 242 243 269 286 289 291 310 312 310
200 208 209 210 209 211 211 212 214 215 211 211 209 209 208 209 213 212 215 215 209 202 199 199 201 206 191 194 210 247 259 276 288 298 304 315 327 330
216 212 214 216 216 216 218 218 218 218 218 216 215 215 217 216 220 218 220 217 215 208 197 207 224 224 221 223 241 256 261 277 287 298 307 324 332 332
223 224 223 221 219 220 219 220 222 221 222 222 222 224 223 222 224 223 219 221 221 217 232 227 216 208 211 226 238 251 268 283 292 295 316 319 333 328
222 223 225 227 226 223 222 221 221 222 222 226 225 226 227 224 226 221 220 222 232 228 225 217 209 204 213 220 231 240 254 271 287 300 310 319 327 329
Wind_Speed_850mb
18 16 13 8 11 9 25 35 29 31 26 32 29 16 49 67 89 91 91 83 65 58 45 39 37 35 34 29 23 19 16 14 11 6 5 8 12 15
19 15 7 10 16 22 20 18 20 23 19 34 37 29 84 95 97 96 85 67 60 50 42 37 36 37 32 28 23 19 15 11 7 8 9 12 16 20
15 12 15 19 21 21 20 8 11 27 36 33 37 73 98 98 92 81 73 62 54 46 37 38 37 34 29 25 22 17 13 9 10 10 14 19 23 28
17 17 16 21 27 17 12 10 28 30 48 72 84 97 93 93 88 75 62 56 53 44 40 37 34 30 27 23 18 13 11 12 14 18 22 25 25 26
21 23 25 27 29 17 18 26 33 32 64 95 93 94 88 82 75 65 54 48 44 41 38 34 31 28 22 16 13 13 15 18 19 18 17 20 23 22
24 26 24 19 18 15 20 25 33 35 70 77 83 86 90 74 63 59 51 47 44 36 33 31 27 22 19 17 13 14 14 13 13 14 17 19 20 20
19 20 19 21 19 13 18 23 32 59 86 86 86 89 82 70 60 51 48 54 40 32 31 27 23 21 19 15 15 11 9 9 11 15 16 14 14 15
25 25 24 24 17 20 21 27 29 64 82 83 83 87 76 64 51 54 54 51 38 30 32 29 23 25 21 20 15 9 5 9 12 8 6 8 12 20
27 33 32 24 26 28 24 24 43 54 70 79 85 79 72 55 47 44 49 35 30 36 32 29 23 22 22 19 15 8 7 8 3 3 7 13 19 25
26 29 28 31 30 28 33 35 40 51 59 68 77 68 56 51 41 36 47 35 30 35 26 22 24 20 21 20 13 8 7 5 3 5 12 17 23 27
25 36 36 48 39 30 47 45 39 40 46 48 55 51 55 42 39 39 40 30 32 26 24 18 21 21 20 17 15 11 10 7 3 9 14 19 25 32
37 40 45 49 46 35 45 46 47 51 58 53 51 49 42 42 31 31 32 25 22 19 26 25 31 25 15 15 18 15 14 4 8 14 18 22 27 29
49 48 52 40 37 34 37 42 51 55 52 49 49 47 44 41 38 31 31 20 21 14 20 23 26 26 12 13 19 15 13 11 9 18 22 23 28 29
52 38 43 37 33 36 34 39 44 50 42 40 41 42 39 34 34 39 38 36 36 28 16 33 18 22 18 17 20 17 12 10 5 10 14 28 35 36
35 35 39 40 42 39 38 40 46 36 36 36 35 33 34 37 32 32 33 32 29 26 22 27 20 23 22 19 20 18 12 11 8 14 20 21 21 16
38 38 35 36 38 36 39 40 32 36 36 36 34 34 36 33 33 32 32 31 27 25 27 26 26 26 23 24 21 17 12 12 13 18 21 14 15 17
42 36 33 32 33 37 38 37 29 33 30 27 29 33 34 34 30 32 27 23 14 18 21 21 26 28 25 23 16 13 9 8 13 16 18 12 14 18
36 29 29 31 33 34 34 33 31 34 30 29 29 29 30 29 28 28 27 25 24 24 23 22 27 27 26 22 21 9 10 8 11 16 17 16 15 19
32 29 30 32 35 36 38 39 38 35 34 33 32 32 32 30 36 28 29 28 27 26 25 24 25 21 21 19 24 21 13 11 14 14 21 26 23 24
34 31 33 34 36 38 38 39 38 36 36 36 36 35 35 33 32 31 31 31 30 28 27 24 27 30 31 25 12 20 18 18 18 20 24 26 28 33
42 38 37 38 39 40 40 40 40 41 40 40 40 38 37 36 36 33 34 37 40 34 36 40 39 33 31 24 23 28 22 22 23 24 24 25 26 22
43 45 44 42 41 41 42 42 44 47 45 40 42 42 41 40 41 40 40 42 53 45 42 47 43 50 47 38 35 28 23 30 27 25 24 24 26 21
50 49 48 48 47 47 47 48 46 45 48 53 49 50 51 50 48 44 44 57 57 59 63 56 52 51 41 36 39 28 27 25 27 24 31 28 28 32
Wind_Direction_850mb
163 173 176 179 169 169 165 159 157 159 157 169 166 208 198 186 158 149 152 149 150 159 156 158 163 165 166 157 153 158 159 169 183 209 272 290 294 295
174 183 180 155 156 144 156 199 197 184 172 191 206 215 172 157 154 153 151 153 158 154 155 164 163 166 156 161 166 169 173 188 208 249 273 289 302 304
160 172 165 158 158 162 157 178 197 180 163 150 158 169 147 148 148 149 150 157 154 157 160 163 161 154 164 172 172 183 196 223 248 274 285 291 292 291
171 159 169 170 164 168 175 147 139 142 145 134 132 144 149 153 150 154 159 155 158 162 150 157 158 161 171 181 182 202 231 251 264 275 284 287 293 299
164 151 155 153 156 162 148 142 152 133 145 135 140 149 151 154 155 153 146 151 142 143 156 159 161 170 178 188 202 226 246 263 271 280 289 295 298 307
158 158 150 152 147 136 145 143 164 154 153 147 145 148 153 152 148 149 148 143 141 151 148 163 166 175 184 205 220 238 252 258 273 287 304 311 322 327
162 159 160 168 159 141 144 150 150 158 151 153 149 152 154 153 149 154 145 144 149 146 152 158 173 184 196 197 207 213 232 274 298 318 321 326 328 330
155 169 159 150 146 148 141 148 165 165 163 160 156 158 159 164 167 154 147 149 138 154 154 145 158 165 181 191 192 216 254 302 314 326 323 324 339 353
150 145 146 146 147 144 142 146 173 171 169 164 162 161 161 156 148 151 155 150 158 158 158 153 162 180 192 198 201 213 279 305 302 314 336 354 355 352
146 137 134 134 135 145 149 146 157 162 172 164 166 162 158 166 168 162 154 167 170 157 165 156 168 184 211 205 209 235 280 236 224 342 359 355 348 338
131 147 132 128 115 116 138 143 140 151 156 163 171 166 172 169 168 173 173 157 159 175 179 182 183 192 200 217 226 236 244 227 290 341 348 342 338 338
135 142 138 134 126 121 132 135 136 139 142 145 154 169 176 179 187 181 165 164 173 182 203 188 197 182 187 214 237 234 229 260 313 328 329 334 341 347
139 135 142 145 133 131 145 149 147 150 150 152 157 165 169 171 172 173 176 194 205 206 233 186 195 200 205 206 206 208 202 272 311 319 323 332 336 341
138 134 137 141 140 139 149 152 154 152 149 149 155 163 166 170 183 191 194 199 194 202 222 192 206 208 207 216 202 210 219 251 267 298 319 331 336 339
152 155 144 145 148 147 146 148 151 147 154 157 163 169 179 190 192 197 203 209 216 225 219 218 210 205 206 212 206 196 198 228 275 310 325 327 329 341
158 154 153 154 156 161 158 157 165 172 170 172 176 186 190 188 193 200 204 206 214 218 217 223 226 198 187 189 191 187 189 206 282 306 326 326 319 319
165 164 166 168 170 173 176 174 171 173 171 181 182 192 192 191 191 194 190 196 194 211 221 219 204 190 186 183 183 189 208 259 289 306 330 318 300 301
173 177 182 184 187 189 191 193 194 196 194 192 193 192 191 190 195 202 203 201 204 200 194 209 204 205 207 204 202 203 246 257 288 303 321 313 288 297
194 202 201 199 197 200 202 204 207 209 204 204 203 201 201 201 209 205 207 208 208 205 203 200 199 196 209 217 248 242 243 269 286 289 291 310 312 310
200 208 209 210 209 211 211 212 214 215 211 211 209 209 208 209 213 212 215 215 209 202 199 199 201 206 191 194 210 247 259 276 288 298 304 315 327 330
216 212 214 216 216 216 218 218 218 218 218 216 215 215 217 216 220 218 220 217 215 208 197 207 224 224 221 223 241 256 261 277 287 298 307 324 332 332
223 224 223 221 219 220 219 220 222 221 222 222 222 224 223 222 224 223 219 221 221 217 232 227 216 208 211 226 238 251 268 283 292 295 316 319 333 328
222 223 225 227 226 223 222 221 221 222 222 226 225 226 227 224 226 221 220 222 232 228 225 217 209 204 213 220 231 240 254 271 287 300 310 319 327 329